Met observations

Date (UTC) Wind direction m/s kts. Vis. * Weather * Cloud * Temperature (°C) Dew point (°C) Air pressure (Hp)
19-01 20:11 8 16 VIS 3000 m BR BKN 200ft OVC 400ft 8.8 8.5 1019.0
19-01 20:01 7 13 VIS 3000 m BR BKN 200ft OVC 400ft 8.8 8.4 1018.8
19-01 19:51 7 14 VIS 3000 m BR BKN 300ft OVC 500ft 8.8 8.4 1018.6
19-01 19:41 5 10 VIS 3000 m BR BKN 300ft OVC 500ft 8.7 8.4 1018.8
19-01 19:31 9 17 VIS 3000 m FBL RA BKN 300ft OVC 500ft 8.8 8.4 1018.8
19-01 19:21 6 12 VIS 3000 m FBL RA BKN 300ft OVC 500ft 8.8 8.4 1018.8
19-01 19:11 4 08 VIS 3000 m FBL RA BKN 300ft OVC 500ft 8.8 8.3 1018.6
19-01 19:01 7 14 VIS 3000 m FBL RA BKN 300ft OVC 600ft 8.7 8.3 1018.7
19-01 18:51 5 10 VIS 3000 m FBL RA BKN 300ft OVC 600ft 8.6 8.2 1018.5
19-01 18:41 3 06 VIS 6 km FBL RA BKN 400ft OVC 700ft 8.8 8.3 1018.6
19-01 18:31 8 16 VIS 6 km FBL RA BKN 400ft OVC 700ft 8.8 8.2 1018.7
19-01 18:21 6 11 VIS 6 km FBL RA BKN 400ft OVC 700ft 8.8 8.2 1018.6
19-01 18:11 4 07 VIS 6 km FBL RA BKN 400ft OVC 700ft 8.8 8.2 1018.5
19-01 18:01 4 07 VIS 6 km FBL RA BKN 400ft OVC 700ft 8.8 8.2 1018.3
19-01 17:51 7 14 VIS 6 km FBL RA BKN 400ft OVC 700ft 8.8 8.2 1018.2
19-01 17:41 5 10 VIS 6 km FBL RA BKN 400ft OVC 700ft 8.8 8.1 1018.1
19-01 17:31 4 08 VIS 6 km FBL RA BKN 400ft OVC 700ft 8.8 8.1 1017.9
19-01 17:21 3 06 VIS 6 km FBL RA BKN 400ft OVC 700ft 8.8 8.1 1018.3
19-01 17:11 3 06 VIS 6 km FBL RA BKN 400ft OVC 700ft 8.7 8.1 1018.2
19-01 17:01 2 03 VIS 6 km FBL RA BKN 400ft OVC 800ft 8.6 8.1 1017.9
19-01 16:51 2 03 VIS 6 km FBL RA BKN 400ft OVC 800ft 8.5 8.0 1018.2
19-01 16:41 5 10 VIS 6 km FBL RA BKN 400ft OVC 800ft 8.4 7.9 1018.2
19-01 16:31 3 05 VIS 6 km FBL RA BKN 400ft OVC 800ft 8.5 7.9 1018.2
19-01 16:21 4 07 VIS 6 km FBL RA BKN 400ft OVC 800ft 8.4 7.8 1018.1
19-01 16:11 3 05 VIS 6 km FBL RA BKN 400ft OVC 800ft 8.4 7.8 1018.1
19-01 16:01 4 07 VIS 6 km FBL RA BKN 400ft OVC 800ft 8.4 7.8 1018.3
19-01 15:51 2 04 VIS 6 km FBL RA BKN 400ft OVC 800ft 8.5 7.9 1018.2
19-01 15:41 2 04 VIS 6 km FBL RA BKN 400ft OVC 800ft 8.5 7.8 1018.2
19-01 15:31 4 08 VIS 6 km FBL RA BKN 400ft OVC 800ft 8.5 7.9 1018.1
19-01 15:21 4 07 VIS 6 km FBL RA BKN 400ft OVC 800ft 8.4 7.8 1018.2
19-01 15:11 5 10 VIS 2000 m FBL RA BKN 300ft OVC 600ft 8.3 7.8 1018.1
19-01 15:01 5 09 VIS 2000 m FBL RA BKN 300ft OVC 600ft 8.3 7.7 1018.2
19-01 14:51 4 08 VIS 2000 m FBL RA BKN 300ft OVC 600ft 8.3 7.7 1017.9
19-01 14:41 4 08 VIS 2000 m FBL RA BKN 300ft OVC 600ft 8.3 7.7 1018.0
19-01 14:31 4 08 VIS 2000 m FBL RA BKN 300ft OVC 600ft 8.3 7.8 1018.1
19-01 14:21 2 03 VIS 2000 m FBL RA BKN 300ft OVC 600ft 8.2 7.8 1018.1
19-01 14:11 2 03 VIS 2000 m FBL RA BKN 300ft OVC 600ft 8.0 7.6 1017.9
19-01 14:01 6 12 VIS 2000 m FBL RA BKN 300ft OVC 600ft 8.0 7.6 1018.0
19-01 13:51 3 06 VIS 2000 m FBL RA BKN 300ft OVC 600ft 8.0 7.5 1018.0
19-01 13:41 6 11 VIS 2000 m FBL RA BKN 300ft OVC 600ft 8.0 7.5 1018.0
19-01 13:31 6 11 VIS 2000 m FBL RA BKN 300ft OVC 600ft 7.9 7.5 1017.8
19-01 13:21 5 10 VIS 2000 m FBL RA BKN 300ft OVC 600ft 7.9 7.4 1018.0
19-01 13:11 5 09 VIS 2000 m FBL RA BKN 300ft OVC 600ft 7.9 7.5 1018.0
19-01 13:01 5 09 VIS 2000 m FBL RA BKN 300ft OVC 600ft 7.8 7.3 1018.2
19-01 12:51 8 16 VIS 2000 m FBL RA BKN 300ft OVC 600ft 7.7 7.3 1018.5
19-01 12:41 7 13 VIS 4000 m FBL RA SCT 300ft OVC 800ft 7.8 7.4 1018.6
19-01 12:31 6 11 VIS 10 km FEW 1500ft BKN 2000ft 7.7 7.3 1018.9
19-01 12:21 7 13 VIS 10 km FEW 1500ft BKN 2000ft 7.6 7.2 1019.0
19-01 12:11 9 17 VIS 10 km FEW 1500ft BKN 2000ft 7.6 7.1 1018.9
19-01 12:01 9 17 VIS 10 km FEW 1500ft BKN 2000ft 7.5 7.0 1019.1
19-01 11:51 10 19 VIS 10 km FEW 1500ft BKN 2000ft 7.4 7.0 1019.1
19-01 11:41 11 22 VIS 10 km FEW 1500ft BKN 2000ft 7.4 6.9 1019.3
19-01 11:31 10 20 VIS 10 km FEW 1500ft BKN 2000ft 7.3 6.8 1019.7
19-01 11:21 11 21 VIS 10 km FEW 1500ft BKN 2000ft 7.2 6.7 1019.7
19-01 11:11 9 18 VIS 10 km FEW 1500ft BKN 2000ft 7.2 6.6 1019.9
19-01 11:01 10 19 VIS 10 km FEW 1500ft BKN 2000ft 7.2 6.5 1020.1
19-01 10:51 9 17 VIS 10 km FEW 1500ft BKN 2000ft 7.2 6.5 1020.3
19-01 10:41 9 18 VIS 10 km FEW 1500ft BKN 2000ft 7.2 6.4 1020.6
19-01 10:31 9 18 VIS 10 km FEW 1500ft BKN 2000ft 7.2 6.3 1020.6
19-01 10:21 12 24 VIS 10 km FEW 1500ft BKN 2000ft 7.2 6.2 1020.8
19-01 10:11 11 21 VIS 10 km FEW 1500ft BKN 2000ft 7.2 6.2 1020.9
19-01 10:01 11 21 VIS 10 km FEW 1500ft BKN 2000ft 7.2 6.1 1021.1
19-01 09:51 9 18 VIS 10 km FEW 1500ft BKN 2000ft 7.2 6.1 1021.3
19-01 09:41 9 17 VIS 10 km FEW 1500ft BKN 2000ft 7.2 6.0 1021.3
19-01 09:31 9 18 VIS 10 km FEW 1500ft BKN 2000ft 7.2 6.0 1021.5
19-01 09:21 11 22 VIS 10 km FEW 1500ft BKN 2000ft 7.1 5.9 1021.7
19-01 09:11 11 21 VIS 10 km FEW 1500ft BKN 2000ft 7.0 5.8 1022.1
19-01 09:01 11 21 VIS 10 km FEW 1500ft BKN 2000ft 7.1 5.7 1022.1
19-01 08:51 10 19 VIS 10 km FEW 1500ft BKN 2000ft 7.1 5.7 1022.0
19-01 08:41 10 19 VIS 10 km FEW 1500ft BKN 2000ft 7.2 5.6 1022.3
19-01 08:31 8 15 VIS 10 km FEW 1500ft BKN 2000ft 7.3 5.5 1022.2
19-01 08:21 10 19 VIS 10 km FEW 1500ft BKN 2000ft 7.3 5.6 1022.4
19-01 08:11 7 14 VIS 10 km FEW 1500ft BKN 2000ft 7.2 5.5 1022.3
19-01 08:01 6 12 VIS 10 km FEW 1500ft BKN 2000ft 7.2 5.4 1022.6
19-01 07:51 8 15 VIS 10 km FEW 1500ft BKN 2000ft 7.0 5.3 1022.8
19-01 07:41 8 15 VIS 10 km FEW 1500ft BKN 2000ft 6.5 4.7 1022.6
19-01 07:31 7 14 VIS 10 km FEW 1500ft BKN 2000ft 6.4 4.4 1022.8
19-01 07:21 7 14 VIS 10 km FBL SHRA FEW 1200ft SCT 2000ft 6.2 4.0 1023.0
19-01 07:11 7 14 VIS 10 km FBL SHRA FEW 1200ft SCT 2000ft 6.2 3.8 1023.5
19-01 07:01 7 13 VIS 10 km FBL SHRA FEW 1200ft SCT 2000ft 5.9 3.7 1023.7
19-01 06:51 6 11 VIS 10 km FBL SHRA FEW 1200ft SCT 2000ft 5.9 3.5 1023.5
19-01 06:41 5 09 VIS 10 km FBL SHRA FEW 1200ft SCT 2000ft 5.9 3.8 1023.8
19-01 06:31 7 13 VIS 10 km FBL SHRA FEW 1200ft SCT 2000ft 5.8 3.5 1024.1
19-01 06:21 5 10 VIS 10 km FBL SHRA FEW 1200ft SCT 2000ft 5.7 3.7 1024.4
19-01 06:11 8 15 VIS 10 km FBL SHRA FEW 1200ft SCT 2000ft 5.9 3.9 1024.6
19-01 06:01 8 16 VIS 10 km FBL SHRA FEW 1200ft SCT 2000ft 6.2 4.4 1024.7
19-01 05:51 8 16 VIS 10 km FBL SHRA FEW 1200ft SCT 2000ft 6.4 4.4 1024.8
19-01 05:41 9 17 VIS 10 km FBL SHRA FEW 1200ft SCT 2000ft 6.4 4.3 1024.7
19-01 05:31 6 12 VIS 10 km FBL SHRA FEW 1200ft SCT 2000ft 6.7 4.6 1024.9
19-01 05:21 5 09 VIS 10 km FBL SHRA FEW 1200ft SCT 2000ft 6.9 4.2 1025.0
19-01 05:11 5 10 VIS 10 km FBL SHRA FEW 1200ft SCT 2000ft 6.7 4.2 1025.0
19-01 05:01 5 10 VIS 10 km FBL SHRA FEW 1200ft SCT 2000ft 6.9 4.0 1025.1
19-01 04:51 7 13 VIS 10 km FBL SHRA FEW 1200ft SCT 2000ft 6.8 3.8 1025.3
19-01 04:41 6 11 VIS 10 km FBL SHRA FEW 1200ft SCT 2000ft 6.6 3.7 1025.3
19-01 04:31 5 10 VIS 10 km FBL SHRA FEW 1200ft SCT 2000ft 6.7 4.0 1025.2
19-01 04:21 5 10 VIS 10 km FBL SHRA FEW 1200ft SCT 2000ft 6.4 3.9 1025.2
19-01 04:11 2 04 VIS 10 km FBL SHRA FEW 1200ft SCT 2000ft 6.2 3.8 1025.3
19-01 04:01 2 04 VIS 10 km FBL SHRA FEW 1200ft SCT 2000ft 6.1 3.8 1025.4
19-01 03:51 2 03 VIS 10 km FBL SHRA FEW 1200ft SCT 2000ft 6.2 3.7 1025.5
19-01 03:41 5 09 VIS 10 km FBL SHRA FEW 1200ft SCT 2000ft 6.1 3.4 1025.5
19-01 03:31 4 08 VIS 10 km FBL SHRA FEW 1200ft SCT 2000ft 6.2 3.0 1025.3
19-01 03:21 4 07 VIS 10 km FBL SHRA FEW 1200ft SCT 2000ft 6.0 3.1 1025.5
19-01 03:11 5 10 VIS 10 km FBL SHRA FEW 1200ft SCT 2000ft 6.2 3.2 1025.4
19-01 03:01 4 07 VIS 10 km FBL SHRA FEW 1200ft SCT 2000ft 6.4 1.9 1025.4
19-01 02:51 3 05 VIS 10 km FBL SHRA FEW 1200ft SCT 2000ft 6.2 1.9 1025.3
19-01 02:41 5 09 VIS 10 km FBL SHRA FEW 1200ft SCT 2000ft 6.3 1.9 1025.2
19-01 02:31 5 09 VIS 10 km FBL SHRA FEW 1200ft SCT 2000ft 6.1 2.2 1025.3
19-01 02:21 6 12 VIS 10 km FBL SHRA FEW 1200ft SCT 2000ft 6.0 1.8 1025.2
19-01 02:11 7 14 VIS 10 km FBL SHRA FEW 1200ft SCT 2000ft 6.1 1.9 1025.3
19-01 02:01 6 11 VIS 10 km FBL SHRA FEW 1200ft SCT 2000ft 6.0 1.9 1025.2
19-01 01:51 7 13 VIS 10 km FBL SHRA FEW 1200ft SCT 2000ft 5.9 1.6 1025.2
19-01 01:41 7 14 VIS 10 km FBL SHRA FEW 1200ft SCT 2000ft 5.9 1.7 1025.1
19-01 01:31 7 14 VIS 10 km FBL SHRA FEW 1200ft SCT 2000ft 5.8 2.0 1024.9
19-01 01:21 7 14 VIS 10 km FBL SHRA FEW 1200ft SCT 2000ft 5.9 2.2 1024.8
19-01 01:11 8 15 VIS 10 km FBL SHRA FEW 1200ft SCT 2000ft 5.6 2.0 1024.8
19-01 01:01 8 15 VIS 10 km FBL SHRA FEW 1200ft SCT 2000ft 5.6 2.4 1024.7
19-01 00:51 6 12 VIS 10 km FBL SHRA FEW 1200ft SCT 2000ft 5.8 2.9 1024.5
19-01 00:41 6 11 VIS 10 km FBL SHRA FEW 1200ft SCT 2000ft 5.5 2.3 1024.5
19-01 00:31 6 11 VIS 10 km FBL SHRA FEW 1200ft SCT 2000ft 5.6 2.3 1024.5
19-01 00:21 7 13 VIS 10 km FBL SHRA FEW 1200ft SCT 2000ft 6.1 2.5 1024.6
19-01 00:11 6 12 VIS 10 km FBL SHRA FEW 1200ft SCT 2000ft 6.0 3.0 1024.5
19-01 00:01 8 15 VIS 10 km FBL SHRA FEW 1200ft SCT 2000ft 6.1 2.7 1024.4
18-01 23:51 7 13 VIS 10 km FBL SHRA FEW 1200ft SCT 2000ft 5.7 2.4 1024.5
18-01 23:41 6 12 VIS 10 km FBL SHRA FEW 1200ft SCT 2000ft 5.5 2.3 1024.5
18-01 23:31 8 16 VIS 10 km FBL SHRA FEW 1200ft SCT 2000ft 5.4 2.0 1024.4
18-01 23:21 7 14 VIS 10 km FBL SHRA FEW 1200ft SCT 2000ft 5.4 2.0 1024.3
18-01 23:11 8 16 VIS 10 km FBL SHRA FEW 1200ft SCT 2000ft 5.8 1.9 1024.4
18-01 23:01 8 15 VIS 10 km FBL SHRA FEW 1200ft SCT 2000ft 5.8 2.1 1024.4
18-01 22:51 6 12 VIS 10 km FBL SHRA FEW 1200ft SCT 2000ft 5.4 2.6 1024.0
18-01 22:41 4 07 VIS 10 km FBL SHRA FEW 1200ft SCT 2000ft 5.0 2.8 1023.8
18-01 22:31 8 15 VIS 10 km FBL SHRA FEW 1200ft SCT 2000ft 5.2 2.5 1023.7
18-01 22:21 6 12 VIS 10 km FBL SHRA FEW 1200ft SCT 2000ft 4.9 3.0 1023.7
18-01 22:11 7 14 VIS 10 km FBL SHRA FEW 1200ft SCT 2000ft 5.0 3.0 1023.6
18-01 22:01 4 07 VIS 10 km FBL SHRA FEW 1200ft SCT 2000ft 5.2 2.8 1023.7
18-01 21:51 6 12 VIS 10 km FBL SHRA FEW 1200ft SCT 2000ft 5.1 2.7 1023.7
18-01 21:41 7 13 VIS 10 km FBL SHRA FEW 1200ft SCT 2000ft 4.9 2.6 1023.4
18-01 21:31 10 19 VIS 10 km FBL SHRA FEW 1200ft SCT 2000ft 5.0 2.5 1023.3
18-01 21:21 8 16 VIS 10 km FBL SHRA FEW 1200ft SCT 2000ft 5.0 2.5 1023.0
18-01 21:11 5 10 VIS 10 km FBL SHRA FEW 1200ft SCT 2000ft 4.3 2.7 1022.8
18-01 21:01 8 16 VIS 10 km FBL SHRA FEW 1200ft SCT 2000ft 4.4 2.4 1022.7
18-01 20:51 2 03 VIS 10 km FBL SHRA FEW 1200ft SCT 2000ft 4.7 2.9 1022.4
18-01 20:41 5 10 VIS 10 km FBL SHRA FEW 1200ft SCT 2000ft 4.2 2.3 1022.3
18-01 20:31 1 01 VIS 10 km FBL SHRA FEW 1200ft SCT 2000ft 3.5 2.1 1022.3

Met data is updated every half hour and is for information only.
* Visibility, weather and cloud values are updated during the airport’s service hours only.
Flight planning documentation is available on opmet.dmi.dk.
For meteorological abbreviations, click here